[[{"header":{"parameterUnit":"m.s-1","parameterCategory":1,"la1":30.2991,"la2":30.254,"lo1":-89.0895,"lo2":-89.0444,"dy":0.0017,"dx":0.0017,"nx":28,"ny":28,"refTime":"2023-03-17T21:00:00:Z","depth":0,"parameterNumber":2,"parameterNumberName":"U-component_of_WINDS"},"data":[0,0,0,0,0,0,0,0,0,0,0,0,0,0,0,0,0,0,0,0,0,0,0,0,0,0,0,0,0,0,0,0,0,0,0,0,0,0,0,0,0,0,0,0,0,0,0,0,0,0,0,0,0,0,0,0,0,0,-1.331,-1.3311,0,-1.3363,-1.3363,-1.3364,-1.3341,-1.334,-1.3338,-1.3337,-1.3392,-1.3394,-1.3397,0,0,0,0,0,0,0,0,0,0,0,0,0,-1.3191,-1.3193,-1.331,-1.3311,-1.3312,-1.3363,-1.3363,-1.3364,-1.3341,-1.334,-1.3338,-1.3337,-1.3391,-1.3394,-1.3397,0,0,0,0,0,0,0,0,0,0,0,0,0,-1.3243,-1.3194,-1.331,-1.3306,-1.3307,-1.3362,-1.3363,-1.3364,-1.3341,-1.334,-1.3338,-1.3336,-1.339,-1.3394,-1.3398,-1.3461,0,0,-1.341,-1.3412,0,0,0,0,0,0,0,0,-1.324,-1.3248,-1.3306,-1.3307,-1.3307,-1.3343,-1.3341,-1.3397,-1.3342,-1.3328,-1.3337,-1.3335,-1.3377,-1.3382,-1.3396,-1.3463,-1.3466,-1.341,-1.3413,-1.3414,-1.3415,0,0,0,0,0,0,0,-1.3237,-1.3245,-1.3331,-1.3307,-1.3308,-1.3302,-1.3307,-1.3352,-1.3363,-1.3329,-1.3328,-1.3334,-1.3377,-1.3392,-1.3397,-1.3467,-1.341,-1.3414,-1.3416,-1.3418,-1.3588,-1.359,0,0,0,0,0,0,-1.3233,-1.3242,-1.3329,-1.3333,-1.3268,-1.3306,-1.3312,-1.3334,-1.3362,-1.3365,-1.3336,-1.3333,-1.3387,-1.3393,-1.3399,-1.3475,-1.3414,-1.3418,-1.342,-1.3586,-1.3588,-1.359,0,0,0,0,0,0,-1.3231,-1.3241,-1.3327,-1.3287,-1.3298,-1.331,-1.3335,-1.3336,-1.3351,-1.3367,-1.3369,-1.3349,-1.3385,-1.3394,-1.3446,-1.3477,-1.342,-1.3423,-1.3583,-1.3586,-1.3589,-1.3628,0,0,0,0,0,0,-1.3227,-1.324,-1.3264,-1.3288,-1.33,-1.3373,-1.3337,-1.3338,-1.3358,-1.3355,-1.3381,-1.3383,-1.3384,-1.344,-1.345,-1.3481,-1.3427,-1.358,-1.3585,-1.3588,-1.3624,-1.3632,-1.3639,0,0,0,0,0,-1.3223,-1.3274,-1.3266,-1.3276,-1.333,-1.3375,-1.3382,-1.3382,-1.336,-1.3385,-1.3395,-1.3382,-1.3471,-1.3445,-1.3456,-1.349,-1.3578,-1.3583,-1.3588,-1.362,-1.363,-1.3639,0,0,0,0,0,0,-1.3254,-1.3277,-1.3268,-1.3328,-1.3349,-1.3371,-1.3402,-1.3392,-1.3421,-1.3417,-1.3416,-1.3422,-1.3476,-1.3488,-1.3458,-1.3552,-1.3522,-1.3529,-1.3543,-1.3552,-1.3559,-1.3556,-1.343,0,0,0,0,0,-1.3268,-1.3302,-1.3319,-1.337,-1.3382,-1.339,-1.3409,-1.3407,-1.343,-1.3439,-1.3453,-1.3476,-1.3509,-1.3531,-1.3562,-1.3625,-1.363,-1.3653,-1.366,-1.3666,-1.3673,-1.3707,-1.3717,-1.3606,-1.3606,-1.3606,0,0,-1.3297,-1.3313,-1.3335,-1.3377,-1.3394,-1.3429,-1.3398,-1.3437,-1.3463,-1.3445,-1.3495,-1.3506,-1.3531,-1.3589,-1.3615,-1.36,-1.3705,-1.3672,-1.3677,-1.3681,-1.3713,-1.3723,-1.3733,-1.3609,-1.3609,-1.3608,0,0,-1.3368,-1.3383,-1.3428,-1.3444,-1.347,-1.3475,-1.3485,-1.3508,-1.3514,-1.3564,-1.3551,-1.3582,-1.3639,-1.3658,-1.3674,-1.3751,-1.374,-1.3761,-1.3801,-1.3834,-1.3843,-1.385,-1.3878,-1.3888,-1.3767,-1.3767,-1.3767,0,-1.3401,-1.3454,-1.3452,-1.3491,-1.351,-1.3495,-1.3539,-1.3556,-1.359,-1.3604,-1.3586,-1.3657,-1.3673,-1.3735,-1.3753,-1.3767,-1.3779,-1.3759,-1.3841,-1.3849,-1.3856,-1.3883,-1.3893,-1.377,-1.3769,-1.3769,-1.3769,0,-1.3493,-1.353,-1.3563,-1.3596,-1.3618,-1.366,-1.3664,-1.3687,-1.3683,-1.3689,-1.374,-1.3758,-1.3793,-1.3807,-1.3803,-1.3868,-1.3858,-1.3841,-1.3811,-1.387,-1.3894,-1.3905,-1.3773,-1.3772,-1.3772,-1.3771,0,0,-1.3588,-1.3618,-1.363,-1.3645,-1.367,-1.3699,-1.374,-1.3773,-1.3793,-1.3816,-1.3851,-1.3899,-1.3883,-1.3902,-1.39,-1.3929,-1.3989,-1.3908,-1.3909,-1.3924,-1.4061,-1.4075,-1.4086,-1.3981,-1.3983,-1.3984,-1.4059,0,-1.3662,-1.3733,-1.3732,-1.3799,-1.3833,-1.3817,-1.3853,-1.3873,-1.3879,-1.3909,-1.3916,-1.3951,-1.3927,-1.3938,-1.3966,-1.3976,-1.4016,-1.397,-1.4014,-1.4015,-1.4009,-1.4099,-1.4114,-1.4184,-1.4069,-1.4071,-1.4072,0,-1.3758,-1.3784,-1.3854,-1.3874,-1.3889,-1.3921,-1.3951,-1.3979,-1.4001,-1.4004,-1.4024,-1.4017,-1.4059,-1.4026,-1.4083,-1.4052,-1.4069,-1.4076,-1.4079,-1.4084,-1.4048,-1.4108,-1.4206,-1.4217,-1.4087,-1.4086,-1.4085,0,-1.3821,-1.3873,-1.3922,-1.3935,-1.396,-1.3982,-1.3994,-1.4014,-1.4033,-1.4059,-1.4072,-1.4103,-1.412,-1.4144,-1.4145,-1.4121,-1.4203,-1.417,-1.4207,-1.4207,-1.4226,-1.4225,-1.433,-1.4236,-1.4235,-1.4235,-1.4235,0,-1.3904,-1.3948,-1.3951,-1.3981,-1.4029,-1.4026,-1.4074,-1.4083,-1.4101,-1.4132,-1.412,-1.415,-1.415,-1.418,-1.4181,-1.4229,-1.4236,-1.424,-1.424,-1.4242,-1.4242,-1.4255,-1.425,-1.4238,-1.4237,-1.4237,-1.4236,0,-1.3983,-1.3987,-1.4039,-1.4057,-1.4063,-1.4098,-1.4114,-1.4142,-1.4147,-1.4187,-1.4197,-1.4205,-1.424,-1.4243,-1.4284,-1.4284,-1.4342,-1.4336,-1.4335,-1.4334,-1.4371,-1.4368,-1.4489,-1.4504,-1.4399,-1.44,-1.44,0,-1.4037,-1.407,-1.4092,-1.4112,-1.4125,-1.4157,-1.4177,-1.4175,-1.4196,-1.4223,-1.4248,-1.4282,-1.4309,-1.4365,-1.4375,-1.4406,-1.4401,-1.4441,-1.4406,-1.4407,-1.4403,-1.4402,-1.4405,-1.4449,-1.445,-1.4451,-1.4452,0,-1.4132,-1.4132,-1.4161,-1.4191,-1.4215,-1.4238,-1.426,-1.4277,-1.4277,-1.4302,-1.4337,-1.4358,-1.4399,-1.4433,-1.4462,-1.4474,-1.4464,-1.4462,-1.4473,-1.4476,-1.4474,-1.4476,-1.4355,-1.446,-1.4459,-1.4459,-1.4458,-1.4458,-1.4201,-1.423,-1.425,-1.4282,-1.4298,-1.4318,-1.4346,-1.4354,-1.4383,-1.4416,-1.4413,-1.4452,-1.4472,-1.4511,-1.4525,-1.4555,-1.4542,-1.4557,-1.4561,-1.4565,-1.4569,-1.4468,-1.4561,-1.456,-1.456,-1.456,-1.456,0,-1.4297,-1.4308,-1.4338,-1.4368,-1.4394,-1.438,-1.4403,-1.4426,-1.446,-1.4479,-1.4506,-1.4546,-1.4578,-1.459,-1.4621,-1.4643,-1.4639,-1.4652,-1.4651,-1.4653,-1.4579,-1.4567,-1.4654,-1.4654,-1.4654,-1.4654,-1.4654,-1.4654,-1.435,-1.4397,-1.4399,-1.4455,-1.4466,-1.4504,-1.4518,-1.4537,-1.4552,-1.4597,-1.4624,-1.4631,-1.4647,-1.4679,-1.4707,-1.471,-1.4722,-1.4737,-1.4738,-1.4668,-1.4659,-1.465,-1.4639,-1.474,-1.474,-1.481,-1.4811,-1.4811]},{"header":{"parameterUnit":"m.s-1","parameterCategory":1,"la1":30.2991,"la2":30.254,"lo1":-89.0895,"lo2":-89.0444,"dy":0.0017,"dx":0.0017,"nx":28,"ny":28,"refTime":"2023-03-17T21:00:00:Z","depth":0,"parameterNumber":3,"parameterNumberName":"V-component_of_WINDS"},"data":[0,0,0,0,0,0,0,0,0,0,0,0,0,0,0,0,0,0,0,0,0,0,0,0,0,0,0,0,0,0,0,0,0,0,0,0,0,0,0,0,0,0,0,0,0,0,0,0,0,0,0,0,0,0,0,0,0,0,-9.2891,-9.2892,0,-9.3012,-9.3014,-9.3015,-9.2932,-9.2928,-9.2925,-9.2921,-9.3038,-9.3044,-9.3051,0,0,0,0,0,0,0,0,0,0,0,0,0,-9.2581,-9.2587,-9.2891,-9.2892,-9.2894,-9.3012,-9.3014,-9.3015,-9.2933,-9.2928,-9.2924,-9.2919,-9.3036,-9.3044,-9.3052,0,0,0,0,0,0,0,0,0,0,0,0,0,-9.271,-9.2589,-9.2891,-9.2867,-9.2866,-9.3012,-9.3014,-9.3016,-9.2934,-9.2928,-9.2923,-9.2917,-9.3033,-9.3043,-9.3053,-9.3226,0,0,-9.3083,-9.3087,0,0,0,0,0,0,0,0,-9.2703,-9.2721,-9.2869,-9.2869,-9.2868,-9.2952,-9.2947,-9.3086,-9.2935,-9.2908,-9.2921,-9.2915,-9.3013,-9.3024,-9.3059,-9.3231,-9.3236,-9.3084,-9.309,-9.3094,-9.3097,0,0,0,0,0,0,0,-9.2694,-9.2716,-9.2939,-9.2871,-9.2871,-9.2848,-9.286,-9.2973,-9.299,-9.291,-9.2904,-9.292,-9.3012,-9.305,-9.3061,-9.3238,-9.3083,-9.3092,-9.3098,-9.3102,-9.3558,-9.3564,0,0,0,0,0,0,-9.2688,-9.2709,-9.2935,-9.2942,-9.277,-9.2858,-9.2872,-9.293,-9.2989,-9.2993,-9.2925,-9.2916,-9.3036,-9.305,-9.3065,-9.3272,-9.3094,-9.3103,-9.3109,-9.3552,-9.3559,-9.3566,0,0,0,0,0,0,-9.2682,-9.2709,-9.293,-9.2824,-9.2851,-9.287,-9.2936,-9.2936,-9.2974,-9.3,-9.3002,-9.2961,-9.3032,-9.3051,-9.3187,-9.3275,-9.3108,-9.3117,-9.3544,-9.3554,-9.3562,-9.3687,0,0,0,0,0,0,-9.2673,-9.2707,-9.2775,-9.2826,-9.2857,-9.3052,-9.2941,-9.2942,-9.2992,-9.2981,-9.3035,-9.3038,-9.3029,-9.3173,-9.3197,-9.3286,-9.3124,-9.3536,-9.3549,-9.3559,-9.3676,-9.37,-9.3721,0,0,0,0,0,-9.2662,-9.2803,-9.2779,-9.2806,-9.2942,-9.3058,-9.3074,-9.3063,-9.2999,-9.3066,-9.3083,-9.3036,-9.3262,-9.3187,-9.3214,-9.3307,-9.3531,-9.3545,-9.3559,-9.3665,-9.3695,-9.372,0,0,0,0,0,0,-9.2759,-9.281,-9.2783,-9.2945,-9.2998,-9.3043,-9.3128,-9.3095,-9.3165,-9.3152,-9.3133,-9.3145,-9.3288,-9.331,-9.3227,-9.3477,-9.3386,-9.3405,-9.3458,-9.3486,-9.3508,-9.35,-9.3132,0,0,0,0,0,-9.2799,-9.2892,-9.293,-9.3069,-9.3097,-9.3109,-9.3158,-9.3146,-9.3198,-9.3219,-9.3246,-9.3297,-9.3379,-9.3434,-9.3511,-9.3678,-9.3688,-9.3755,-9.3778,-9.3796,-9.3813,-9.3904,-9.3934,-9.3611,-9.3611,-9.3611,0,0,-9.2883,-9.2922,-9.2981,-9.309,-9.3129,-9.3223,-9.3128,-9.323,-9.3299,-9.3234,-9.3365,-9.3386,-9.3442,-9.3595,-9.3663,-9.3618,-9.3905,-9.3814,-9.3828,-9.3836,-9.3921,-9.3952,-9.3979,-9.3621,-9.3619,-9.3618,0,0,-9.3085,-9.3124,-9.3245,-9.3287,-9.3349,-9.3356,-9.3385,-9.3436,-9.3448,-9.358,-9.3533,-9.3613,-9.3755,-9.3797,-9.3837,-9.4055,-9.4014,-9.408,-9.4198,-9.4287,-9.4312,-9.4334,-9.4413,-9.4441,-9.4097,-9.4098,-9.4098,0,-9.318,-9.3323,-9.331,-9.3418,-9.3467,-9.3415,-9.3536,-9.3577,-9.366,-9.3694,-9.3642,-9.382,-9.3854,-9.4016,-9.4069,-9.4103,-9.4135,-9.4074,-9.431,-9.4332,-9.4353,-9.4427,-9.4457,-9.4105,-9.4105,-9.4104,-9.4103,0,-9.3438,-9.3537,-9.3627,-9.3712,-9.377,-9.3884,-9.3888,-9.3948,-9.393,-9.3941,-9.4075,-9.4114,-9.4198,-9.4235,-9.4218,-9.4395,-9.4366,-9.4313,-9.422,-9.4392,-9.4461,-9.4489,-9.4116,-9.4114,-9.4111,-9.4109,0,0,-9.3703,-9.3781,-9.3815,-9.3853,-9.3918,-9.3993,-9.4103,-9.4189,-9.4241,-9.4299,-9.4391,-9.4513,-9.4465,-9.451,-9.4497,-9.4574,-9.4745,-9.4511,-9.4512,-9.4554,-9.4943,-9.4984,-9.5017,-9.4718,-9.4724,-9.4728,-9.4939,0,-9.3909,-9.4106,-9.4098,-9.4281,-9.4372,-9.4324,-9.442,-9.447,-9.4483,-9.456,-9.4573,-9.4661,-9.459,-9.4618,-9.4692,-9.4709,-9.4823,-9.4693,-9.4802,-9.4806,-9.4791,-9.5053,-9.5096,-9.5293,-9.4966,-9.4971,-9.4974,0,-9.4175,-9.4247,-9.444,-9.4492,-9.453,-9.4617,-9.4695,-9.477,-9.4824,-9.4828,-9.488,-9.4854,-9.4964,-9.4869,-9.502,-9.4932,-9.4975,-9.499,-9.4997,-9.5007,-9.4901,-9.5071,-9.5356,-9.5386,-9.5016,-9.5013,-9.501,0,-9.4351,-9.4494,-9.4629,-9.4662,-9.4727,-9.4789,-9.4818,-9.4867,-9.4919,-9.4986,-9.5019,-9.5097,-9.514,-9.5199,-9.5194,-9.5125,-9.5348,-9.5252,-9.5353,-9.5354,-9.5403,-9.54,-9.5699,-9.543,-9.543,-9.5429,-9.5429,0,-9.4581,-9.4701,-9.4709,-9.4791,-9.4924,-9.4913,-9.5044,-9.5066,-9.511,-9.5194,-9.5156,-9.5235,-9.5224,-9.5303,-9.5299,-9.5425,-9.5444,-9.5449,-9.5447,-9.5454,-9.5453,-9.5482,-9.5469,-9.5437,-9.5435,-9.5434,-9.5433,0,-9.48,-9.481,-9.4953,-9.5003,-9.5018,-9.5114,-9.5155,-9.5232,-9.5243,-9.535,-9.5375,-9.539,-9.5482,-9.5483,-9.5586,-9.5584,-9.5738,-9.5719,-9.5721,-9.5717,-9.5819,-9.581,-9.6148,-9.6192,-9.5894,-9.5897,-9.5899,0,-9.4947,-9.5039,-9.51,-9.5155,-9.5189,-9.5278,-9.5332,-9.5324,-9.5381,-9.545,-9.5519,-9.5607,-9.5678,-9.5825,-9.5845,-9.5923,-9.5907,-9.602,-9.5918,-9.5922,-9.5909,-9.5904,-9.5913,-9.604,-9.6043,-9.6046,-9.6048,0,-9.5208,-9.5208,-9.5289,-9.5372,-9.5438,-9.5501,-9.556,-9.5607,-9.5605,-9.5671,-9.5766,-9.5821,-9.5928,-9.6016,-9.6092,-9.6119,-9.6084,-9.608,-9.6108,-9.6116,-9.6113,-9.6117,-9.5776,-9.6073,-9.607,-9.6068,-9.6067,-9.6066,-9.5395,-9.5475,-9.5531,-9.5622,-9.5666,-9.5722,-9.5798,-9.5819,-9.5899,-9.5988,-9.5977,-9.6083,-9.6133,-9.6233,-9.6267,-9.6347,-9.6308,-9.6348,-9.6358,-9.6368,-9.638,-9.61,-9.6361,-9.636,-9.636,-9.6359,-9.6358,0,-9.5655,-9.5689,-9.5772,-9.5858,-9.5929,-9.5892,-9.5955,-9.6017,-9.6111,-9.6163,-9.6234,-9.6342,-9.6427,-9.6454,-9.6536,-9.6595,-9.6581,-9.6617,-9.6613,-9.6619,-9.641,-9.6379,-9.6627,-9.6627,-9.6627,-9.6627,-9.6627,-9.6627,-9.5798,-9.5932,-9.5939,-9.6093,-9.6125,-9.6231,-9.627,-9.6321,-9.6363,-9.6487,-9.6559,-9.6576,-9.6617,-9.6702,-9.6778,-9.6783,-9.6815,-9.6858,-9.6857,-9.6661,-9.6634,-9.6608,-9.6578,-9.6865,-9.6865,-9.7059,-9.7061,-9.7063]}]]